www.pogodaiklimat.ru

Погода и климат >> Архив погоды >> Норвегия >> Edgeoya


ПОГОДА в Edgeoya

  • Прогноз погоды в Edgeoya
  • Монитор погоды в Edgeoya
  • Климат города

АРХИВ ПОГОДЫ в Edgeoya

Время (UTC), дата Ветер
(напр.,м/с)
 
Видим.   Явления Облачность Т
(С)
Тd
(С)
f
(%)
Тe
(С)
Тes
(С)
Комфортность P
(гПа)
Po
(гПа)
Тmin
(С)
Tmax
(С)
R
(мм)
R24
(мм)
S
(см)
17 12.07 З 12
{16}
н/о н/о +7.9 +4.3 78 +2 +2 1001.8 1000.3
16 12.07 ЮЗ 10
{14}
н/о н/о +7.3 +5.8 90 +2 +2 1002.4 1000.8
18 12.07 З 10
{16}
н/о н/о +7.7 +3.6 75 +2 +2 1002.2 1000.7
19 12.07 З 13
{16}
н/о н/о +7.4 +3.1 74 +1 +1 1000.9 999.4
20 12.07 З 12
{17}
н/о н/о +5.9 +2.9 81 -1 -1 1001.4 999.9
21 12.07 З 15
{19}
н/о н/о +6.4 +2.5 76 -0 -0 1001.3 999.8
23 12.07 З 17
{21}
н/о н/о +6.0 +2.3 77 -1 -1 1001.1 999.6
22 12.07 З 16
{19}
н/о н/о +6.1 +2.4 77 -1 -1 1001.1 999.6
00 13.07 З 11
{21}
н/о н/о +6.2 +1.9 74 0 0 1003.1 1001.6
01 13.07 Ю 5
{11}
н/о н/о +6.2 +1.7 73 +2 +2 1003.5 1002.0
02 13.07 Ю 3
{7}
н/о н/о +6.7 +1.0 67 +4 +4 1003.9 1002.4
03 13.07 З 8
{10}
н/о н/о +6.6 +1.7 71 +2 +2 1003.8 1002.3
05 13.07 З 9
{17}
н/о н/о +7.1 +1.6 68 +2 +2 1004.3 1002.8
04 13.07 З 14
{17}
н/о н/о +6.9 +1.4 68 +1 +1 1002.9 1001.4
06 13.07 З 6
{17}
н/о н/о +7.5 +1.4 65 +4 +4 1004.7 1003.2 +5.7 +7.7
07 13.07 З 12
{15}
н/о н/о +6.8 +1.1 67 +1 +1 1004.8 1003.3
08 13.07 З 10
{14}
н/о н/о +6.9 +1.6 69 +1 +1 1005.7 1004.2
09 13.07 З 9
{13}
н/о н/о +7.0 +1.9 70 +2 +2 1006.5 1005.0
11 13.07 З 9
{12}
н/о н/о +7.1 +2.2 71 +2 +2 1007.7 1006.2
10 13.07 З 9
{11}
н/о н/о +6.7 +1.6 70 +1 +1 1007.1 1005.6
12 13.07 З 8
{15}
н/о н/о +7.2 +1.9 69 +2 +2 1008.4 1006.8
13 13.07 З 8
{10}
н/о н/о +7.2 +2.1 70 +2 +2 1009.1 1007.5
14 13.07 З 7
{9}
н/о н/о +7.0 +2.3 72 +2 +2 1009.5 1008.0
17 13.07 СВ 2
{4}
н/о н/о +5.6 +1.7 76 +3 +3 1010.1 1008.5
16 13.07 С 2
{3}
н/о н/о +5.4 +1.9 78 +3 +3 1010.0 1008.5
19 13.07 штиль 0
{3}
н/о н/о +6.6 +2.1 73 +6 +6 1010.1 1008.6
20 13.07 З 3
{3}
н/о н/о +6.3 +2.0 74 +3 +3 1010.1 1008.6
21 13.07 В 1
{3}
н/о н/о +6.2 +2.5 77 +5 +5 1010.0 1008.5
23 13.07 ЮЗ 4
{5}
н/о н/о +5.6 +3.0 83 +2 +2 1009.4 1007.8
22 13.07 ЮЗ 3
{4}
н/о н/о +6.1 +2.6 78 +3 +3 1009.6 1008.1
00 14.07 ЮЗ 4
{5}
н/о н/о +5.8 +3.0 82 +2 +2 1009.0 1007.4
01 14.07 ЮЗ 7
{8}
н/о н/о +5.8 +2.3 78 +1 +1 1008.2 1006.7
02 14.07 ЮЗ 9
{10}
н/о н/о +5.5 +2.2 79 -0 -0 1007.8 1006.2
03 14.07 ЮЗ 6
{9}
н/о н/о +4.4 +2.3 86 -1 -1 1007.5 1006.0
05 14.07 ЮЗ 6
{7}
н/о н/о +5.5 +1.8 77 +1 +1 1006.1 1004.6
04 14.07 ЮЗ 5 н/о н/о +5.0 +2.4 83 0 0 1006.9 1005.3
07 14.07 ЮВ 1
{4}
н/о н/о +5.7 +2.0 77 +5 +5 1005.0 1003.5
08 14.07 Ю 4
{5}
н/о н/о +5.4 +3.6 88 +1 +1 1004.3 1002.8
09 14.07 Ю 5
{5}
н/о н/о +5.8 +4.6 92 +1 +1 1003.5 1002.0
10 14.07 Ю 3
{6}
н/о н/о +5.9 +4.6 91 +3 +3 1003.2 1001.6
12 14.07 СЗ 1 н/о н/о +5.5 +3.7 88 +4 +4 1002.7 1001.2
13 14.07 З 4
{4}
н/о н/о +5.1 +5.1 100 +1 +1 1002.8 1001.3
14 14.07 З 7
{8}
н/о н/о +5.1 +5.1 100 -1 -1 1002.6 1001.1
15 14.07 З 8
{10}
н/о н/о +5.4 +5.4 100 -1 -1 1002.6 1001.1
16 14.07 З 6
{8}
н/о н/о +4.7 +4.7 100 -1 -1 1003.0 1001.5
17 14.07 З 5
{8}
н/о н/о +5.9 +4.2 89 +1 +1 1003.4 1001.8
18 14.07 З 5
{10}
н/о н/о +6.1 +3.6 84 +2 +2 1003.8 1002.3
19 14.07 З 7
{8}
н/о н/о +6.6 +2.9 77 +2 +2 1004.3 1002.8
20 14.07 С 1
{6}
н/о н/о +6.3 +2.8 78 +5 +5 1005.3 1003.8
21 14.07 С 2
{3}
н/о н/о +4.6 +3.1 90 +2 +2 1006.1 1004.6
22 14.07 штиль 0
{3}
н/о н/о +5.1 +2.6 84 +4 +4 1006.7 1005.1
23 14.07 СВ 1
{2}
н/о н/о +5.1 +2.1 81 +4 +4 1007.2 1005.7
00 15.07 ЮВ 1
{8}
н/о н/о +4.9 +2.4 84 +4 +4 1007.6 1006.1
01 15.07 ЮВ 2
{3}
н/о н/о +5.1 +2.1 81 +3 +3 1007.9 1006.4
02 15.07 ЮВ 3
{3}
н/о н/о +5.7 +2.2 78 +3 +3 1008.2 1006.7
03 15.07 ЮВ 3
{4}
н/о н/о +5.9 +3.6 85 +3 +3 1008.6 1007.0
04 15.07 В 4 н/о н/о +5.9 +4.1 88 +2 +2 1008.7 1007.2
05 15.07 В 5
{6}
н/о н/о +5.9 +4.1 88 +1 +1 1008.9 1007.3
06 15.07 ЮВ 5
{6}
н/о н/о +5.3 +3.2 86 +1 +1 1008.9 1007.4 +4.4 +6.6
07 15.07 В 6
{7}
н/о н/о +5.2 +3.1 86 0 0 1009.1 1007.6
09 15.07 В 5
{6}
н/о н/о +5.7 +3.6 86 +1 +1 1009.5 1008.0
10 15.07 ЮВ 5
{6}
н/о н/о +5.8 +3.8 87 +1 +1 1009.5 1008.0
11 15.07 ЮВ 5
{6}
н/о н/о +5.5 +3.4 86 +1 +1 1009.5 1007.9
14 15.07 В 5
{6}
н/о н/о +4.5 +4.4 99 -1 -1 1009.2 1007.6
13 15.07 ЮВ 5
{5}
н/о н/о +4.0 +4.0 100 -1 -1 1009.4 1007.9
15 15.07 ЮВ 4
{5}
н/о н/о +5.7 +5.7 100 +1 +1 1008.8 1007.3
16 15.07 ЮВ 5
{6}
н/о н/о +5.2 +5.2 100 0 0 1008.7 1007.1
17 15.07 ЮВ 4
{6}
н/о н/о +5.0 +5.0 100 +1 +1 1008.6 1007.0
18 15.07 В 3
{6}
н/о н/о +4.3 +4.3 100 0 0 1008.3 1006.7
20 15.07 ЮВ 3
{3}
н/о н/о +4.2 +4.2 100 0 0 1007.7 1006.2
19 15.07 В 3
{4}
н/о н/о +4.3 +4.3 100 0 0 1008.0 1006.4
21 15.07 В 2
{3}
н/о н/о +4.4 +4.4 100 +1 +1 1007.4 1005.8
22 15.07 В 1
{2}
н/о н/о +4.4 +4.3 99 +3 +3 1007.4 1005.9
23 15.07 С 1
{2}
н/о н/о +4.3 +4.3 100 +3 +3 1007.0 1005.4
00 16.07 С 1
{4}
н/о н/о +3.7 +3.7 100 +2 +2 1006.8 1005.2
02 16.07
{2}
н/о н/о +3.3 +3.3 100 1006.3 1004.8
01 16.07
{2}
н/о н/о +3.4 +3.4 100 1006.6 1005.0
03 16.07 СВ 1
{2}
н/о н/о +3.3 +3.3 100 +2 +2 1005.9 1004.4
04 16.07 С 1 н/о н/о +3.4 +3.4 100 +2 +2 1005.7 1004.2
05 16.07 СВ 2
{2}
н/о н/о +3.4 +3.4 100 0 0 1005.1 1003.5
06 16.07 СВ 3
{3}
н/о н/о +3.4 +3.4 100 -1 -1 1004.7 1003.1 +3.3 +4.5
08 16.07 С 6
{7}
н/о н/о +3.1 +3.1 100 -3 -3 1004.6 1003.0
09 16.07 С 7
{8}
н/о н/о +3.1 +3.0 99 -3 -3 1004.7 1003.2
10 16.07 С 7
{8}
н/о н/о +3.0 +2.9 99 -3 -3 1005.3 1003.8
11 16.07 С 6
{8}
н/о н/о +2.9 +2.9 100 -3 -3 1005.8 1004.3
12 16.07 С 7 н/о н/о +3.9 +3.0 94 -2 -2 1006.1 1004.6
13 16.07 С 8
{9}
н/о н/о +4.1 +2.9 92 -2 -2 1006.8 1005.2
14 16.07 С 8
{10}
н/о н/о +4.5 +2.7 88 -2 -2 1007.3 1005.7
16 16.07
{9}
н/о н/о +4.5 +2.5 87 1008.9 1007.4
17 16.07 С 4
{6}
н/о н/о +4.3 +2.3 87 -0 -0 1009.8 1008.3
18 16.07 н/о н/о +4.4 +2.1 85 1009.8 1008.3
19 16.07 С 7
{9}
н/о н/о +3.9 +1.8 86 -2 -2 1010.5 1008.9
20 16.07
{8}
н/о н/о +3.8 +1.5 85 1011.2 1009.7
21 16.07 С 6 н/о н/о +3.2 +1.4 88 -3 -3 1011.9 1010.4
22 16.07 С 5 н/о н/о +3.1 +1.3 88 -2 -2 1012.5 1011.0
23 16.07 С 6 н/о н/о +3.1 +0.8 85 -3 -3 1012.7 1011.1
00 17.07 С 5
{9}
н/о н/о +3.1 +1.0 86 -2 -2 1013.1 1011.6
01 17.07 С 4
{5}
н/о н/о +3.4 +1.1 85 -1 -1 1013.6 1012.1
02 17.07 СВ 3
{4}
н/о н/о +3.5 +1.6 87 -0 -0 1013.8 1012.3
03 17.07 СВ 2
{3}
н/о н/о +3.5 +1.4 86 +1 +1 1014.1 1012.5
04 17.07 В 2
{2}
н/о н/о +3.5 +1.4 86 +1 +1 1014.3 1012.7
05 17.07 В 3
{4}
н/о н/о +3.7 +2.1 89 -0 -0 1014.3 1012.7
07 17.07 ЮВ 5
{6}
н/о н/о +3.3 +3.3 100 -2 -2 1014.7 1013.1
08 17.07 ЮВ 4
{6}
н/о н/о +3.7 +3.7 100 -1 -1 1014.9 1013.4
09 17.07 В 3
{5}
н/о н/о +3.9 +3.9 100 -0 -0 1015.1 1013.5
10 17.07 В 3
{3}
н/о н/о +4.8 +4.5 98 +1 +1 1015.1 1013.5
11 17.07 В 1
{3}
н/о н/о +5.4 +4.5 94 +4 +4 1015.3 1013.7
12 17.07 СЗ 2
{6}
н/о н/о +4.8 +4.8 100 +2 +2 1015.4 1013.9
14 17.07 СЗ 2
{3}
н/о н/о +4.7 +4.6 99 +2 +2 1015.6 1014.1
15 17.07 СЗ 3
{4}
н/о н/о +4.7 +4.7 100 +1 +1 1015.8 1014.2
17 17.07 СЗ 2
{4}
н/о н/о +5.0 +4.7 98 +2 +2 1016.2 1014.7
16 17.07 З 3
{4}
н/о н/о +4.9 +4.6 98 +1 +1 1015.9 1014.4
18 17.07 З 3 н/о н/о +4.8 +4.8 100 +1 +1 1016.3 1014.7
20 17.07 З 3
{4}
н/о н/о +5.2 +4.0 92 +2 +2 1016.8 1015.3
21 17.07 З 3
{3}
н/о н/о +5.2 +3.7 90 +2 +2 1017.3 1015.7
22 17.07 С 3
{4}
н/о н/о +4.4 +4.4 100 +1 +1 1017.7 1016.2
23 17.07 СВ 3
{4}
н/о н/о +4.0 +3.6 97 0 0 1018.3 1016.7
00 18.07 СВ 2
{4}
н/о н/о +3.9 +3.2 95 +1 +1 1018.8 1017.2
01 18.07 В 1
{2}
н/о н/о +3.9 +3.0 94 +2 +2 1019.3 1017.8
02 18.07 В 2
{3}
н/о н/о +3.7 +2.8 94 +1 +1 1019.6 1018.0
03 18.07 В 2
{2}
н/о н/о +3.9 +2.9 93 +1 +1 1020.0 1018.4
04 18.07 В 2
{3}
н/о н/о +4.0 +3.0 93 +1 +1 1020.3 1018.7
05 18.07 В 2
{2}
н/о н/о +4.0 +3.1 94 +1 +1 1020.5 1018.9
06 18.07 В 3
{3}
н/о н/о +4.6 +3.9 95 +1 +1 1020.7 1019.1 +3.7 +5.4
07 18.07 В 4
{4}
н/о н/о +4.5 +3.8 95 0 0 1020.8 1019.2
09 18.07 Ю 4
{7}
н/о н/о +6.5 +3.1 79 +3 +3 1021.2 1019.7
10 18.07 ЮВ 6
{8}
н/о н/о +4.9 +3.7 92 -0 -0 1020.9 1019.4
11 18.07 Ю 5
{8}
н/о н/о +7.0 +3.3 77 +3 +3 1020.7 1019.1
12 18.07 ЮВ 7 н/о н/о +7.0 +4.0 81 +2 +2 1020.4 1018.9
14 18.07 З 5
{6}
н/о н/о +6.4 +3.7 83 +2 +2 1020.3 1018.8
13 18.07 З 4
{10}
н/о н/о +5.8 +3.3 84 +2 +2 1020.5 1018.9
15 18.07 З 5
{6}
н/о н/о +5.3 +3.6 89 +1 +1 1020.2 1018.7
16 18.07 З 5
{6}
н/о н/о +5.7 +3.7 87 +1 +1 1020.2 1018.6
17 18.07 З 3
{5}
н/о н/о +5.2 +3.5 89 +2 +2 1019.6 1018.1
18 18.07 СЗ 2
{10}
н/о н/о +5.0 +4.4 96 +2 +2 1019.2 1017.7
20 18.07 З 2
{4}
н/о н/о +5.0 +4.4 96 +2 +2 1018.7 1017.2
19 18.07 З 3
{4}
н/о н/о +5.1 +4.2 94 +1 +1 1019.0 1017.4
21 18.07 З 3
{4}
н/о н/о +5.1 +4.4 95 +1 +1 1018.6 1017.0
22 18.07 З 3
{4}
н/о н/о +5.1 +4.8 98 +1 +1 1018.3 1016.7
23 18.07 З 3
{4}
н/о н/о +5.1 +5.0 99 +1 +1 1018.1 1016.5
00 19.07 З 4
{5}
н/о н/о +4.6 +4.6 100 0 0 1018.2 1016.7
02 19.07 З 4
{6}
н/о н/о +4.9 +4.8 99 0 0 1017.6 1016.0
01 19.07 З 4
{5}
н/о н/о +4.9 +4.9 100 0 0 1018.0 1016.5
03 19.07 З 5
{6}
н/о н/о +5.5 +4.8 95 +1 +1 1017.5 1016.0
04 19.07 З 4
{6}
н/о н/о +5.2 +5.1 99 +1 +1 1017.4 1015.8
05 19.07 З 3
{4}
н/о н/о +6.5 +4.7 88 +3 +3 1017.5 1015.9
06 19.07 З 2
{6}
н/о н/о +6.2 +4.7 90 +4 +4 1017.4 1015.9 +4.5 +6.7
08 19.07 С 3
{4}
н/о н/о +3.8 +3.2 96 -0 -0 1017.3 1015.7
09 19.07 СВ 5
{5}
н/о н/о +3.2 +3.2 100 -2 -2 1017.2 1015.6
10 19.07 СВ 4
{5}
н/о н/о +3.6 +3.6 100 -1 -1 1017.1 1015.6
11 19.07 СВ 2
{4}
н/о н/о +3.7 +3.7 100 +1 +1 1016.9 1015.3
12 19.07 СВ 3 н/о н/о +3.9 +3.8 99 -0 -0 1016.4 1014.9
13 19.07 СВ 2
{3}
н/о н/о +4.0 +3.9 99 +1 +1 1016.3 1014.8
14 19.07 В 3
{4}
н/о н/о +5.4 +4.8 96 +2 +2 1015.4 1013.9

 

Местоположение метеостанции Edgeoya (Норвегия): широта 78.25 долгота 22.82 высота над уровнем моря 14 м.

В архиве по умолчанию представлена погода в Edgeoya за последнюю неделю. Архивные данные за месяц целиком и за предыдущие месяцы, начиная с января 2011 года, Вы можете получить, выбрав интересующий диапазон дат из раскрывающегося списка и нажав кнопку "Ввод!".


*Определитесь, кто Вы:
робот инопланетянин человек

Внимание! Время в таблицах - всемирное. Для получения местного времени необходимо прибавить поправку, которая в Edgeoya равна 1 ч.

Смотрите также архив погоды в соседних городах и на ближайших метеорологических станциях:

Погода в Pyramiden (Норвегия) (151 км)
Погода в Kongsoya (Норвегия) (153 км)
Погода в Svalbard Lufthavn (Норвегия) (166 км)
Погода в Баренцбурге (Шпицберген, Россия) (196 км)
Погода в Akseloya (Норвегия) (197 км)
Погода в Hopen (Норвегия) (201 км)
Погода в Hornsund (Норвегия) (222 км)
Погода в Verlegenhuken (Норвегия) (243 км)
Погода в Sorkappoya (Норвегия) (249 км)
Погода в Ny-Alesund (Норвегия) (251 км)

Пояснения к столбцам:

Ветер - указаны скорость ветра в м/с - средняя за 10 мин, порывы в срок и между сроками (в фигурных скобках) и направление, откуда дует ветер: С - северный, СВ - северо-восточный, В - восточный, ЮВ - юго-восточный, Ю - южный, ЮЗ - юго-западный, З - западный, СЗ - северо-западный.
Видимость - горизонтальная дальность видимости в метрах или километрах. При видимости от 1 до 10 км при отсутствии осадков обычно наблюдается дымка, при ухудшении видимости до 1 км и менее - туман. В сухую погоду видимость может ухудшаться дымом, пылью или мглою.
Явления - указаны атмосферные явления, наблюдавшиеся в срок или в последний час перед сроком; фигурными скобками обозначены явления, наблюдавшиеся между сроками (за 1-3 часа до срока); квадратными скобками обозначены град или гололедные отложения с указанием их диаметра в мм.
Облачность - указаны через наклонную черту общая и нижняя облачность в баллах и высота нижней границы облаков в метрах; квадратными скобками обозначены формы облаков: Ci - перистые, Cs - перисто-слоистые, Cc - перисто-кучевые, Ac - высококучевые, As - высокослоистые, Sc - слоисто-кучевые, Ns - слоисто-дождевые, Cu - кучевые, Cb - кучево-дождевые. Подробнее классификацию облаков см. в Атласе облаков (PDF).
T - Температура воздуха - температура, измеренная на высоте 2 м над землей.
Td - Температура точки росы - температура, при понижении до которой содержащийся в воздухе водяной пар достигнет насыщения.
f - Относительная влажность воздуха - влажноcть воздуха, измеренная на высоте 2 м над землей.
Te - Эффективная температура - температура, которую ощущает одетый по сезону человек в тени. Характеристика душности погоды. При расчете учитывается влияние влажности воздуха и скорости ветра на теплоощущения человека.
Tes - Эффективная температура на солнце - температура, которую ощущает человек, с поправкой на солнечный нагрев. Характеристика знойности погоды. Зависит от высоты солнца над горизонтом, облачности и скорости ветра. Ночью, в пасмурную погоду, а также при ветре 12 м/с и более поправка равна нулю.
P - Атмосферное давление - приведенное к уровню моря атмосферное давление.
Po - Атмосферное давление - измеренное на уровне метеостанции атмосферное давление.
Tmin - Минимальная температура - минимум температуры воздуха на высоте 2 м над землей.
Tmax - Максимальная температура - максимум температуры воздуха на высоте 2 м над землей.
R - Количество осадков - Количество выпавших осадков за период времени, мм. При наведении курсора мыши на число - период времени, за который выпало указанное количество осадков.
R24 - Количество осадков - Количество выпавших осадков за 24 часа, мм.
S - Снежный покров - Высота снежного покрова, см. При наведении курсора мыши на число - состояние снежного покрова и степень покрытия местности в баллах.